Location: Bremen
(53.0830°N, 8.8000°E)
Time: 08:31:59
(UTC+01:00)

ISS - Visible Passes

Search period start: 11 December 2018 00:00
Search period end: 21 December 2018 00:00
Orbit: 401 x 408 km, 51.6° (Epoch: 12 December)

Date Brightness Start Highest point End Pass type
(mag) Time Alt. Az. Time Alt. Az. Time Alt. Az.
11 Dec -1.0 18:13:56 10° WSW 18:16:08 17° SW 18:18:21 10° S visible
12 Dec -1.4 17:21:25 10° W 17:24:08 24° SSW 17:26:51 10° SSE visible
14 Dec -0.6 17:13:58 10° WSW 17:15:52 15° SW 17:17:47 10° S visible
